User: anonymous   Login
Location: Jackson
(35.6140°N, 88.8140°W)
Time: 06:48:51
(UTC-06:00)
Language:

KKS-1 - Orbit

View from above orbital plane
View from above orbital plane
View from above satellite
View from above satellite

Ground track
Ground track

The orbit data is extracted from the following two-line orbital elements,

1 33499U 09002H   19347.14919265  .00000088  00000-0  20935-4 0  9999
2 33499  98.3338 191.4017 0009294   9.5379 350.6004 14.75487556585394
Epoch (UTC): 13 December 2019 03:34:50
Eccentricity: 0.0009294
inclination: 98.3338°
perigee height: 637 km
apogee height: 650 km
right ascension of ascending node: 191.4017°
argument of perigee: 9.5379°
revolutions per day: 14.75487556
mean anomaly at epoch: 350.6004°
orbit number at epoch: 58539

The dashed part of the orbit path shows where the satellite is in the earth's shadow,  

DLR